{"data":{"norad_id":65366,"epoch":"2026-09-20T12:35:54.415968Z","epoch_age_seconds":115280,"freshness":"FRESH","line1":"1 65366U 25190R   26263.52493537  .00024208  00000+0  72522-3 0  9996","line2":"2 65366  53.1600 339.7663 0001197  77.8925 282.2212 15.34403323 59164","mean_motion":15.34403323,"eccentricity":0.0001197,"inclination_deg":53.16,"raan_deg":339.7663,"arg_perigee_deg":77.8925,"mean_anomaly_deg":282.2212,"bstar":0.00072522,"rev_number":5916,"period_min":93.847554838748,"perigee_km":461.87451617412,"apogee_km":463.51221096316,"semimajor_km":6840.8303635686,"source":"CELESTRAK","updated_at":"2026-09-21T09:00:35.578178Z"}}